CYGFM04 (41885 NORAD) Tracking and Keplerian Element Data

This shows tracking and keplerian element data for the satellite.

Feedback or suggestion? Click here.




ElementValue
Catalog41885
NameCYGFM04
Epoch Orbit8787
Epoch Day198.90884516
Epoch Year2018
RAAN86.9665
Inclination34.9505
Eccentricity0.0015204
Argument of Perigee274.5615
Mean Anonmoly85.3359
Mean Motion15.14659762
Decay Rate2.53E-06
L11 41885U 16078B 18198.90884516 .00000253 00000-0 15061-4 0 9993
L22 41885 34.9505 86.9665 0015204 274.5615 85.3359 15.14659762 87875

Live tracking and technical data element details for CYGFM04 (NORAD 41885). CYGFM04 can be tracked NOW for your location showing map with azimuth and elevation plus other details from your city location.

Track the satellite on the map from your city or location and see movement details for azimuth, elevation, latitude, longitude, range, height, and movement on the map or in text.







IsCatalogInMostPopularTable: catalog: 41885, numindb: 77
Update: records affected: 1



GetName: 41885 CYGFM04

Hit Count: updated at: Thu, 19 Jul 2018 03:49:42 GMT